THOR ABLESTAR DEB, 3164

Orbit data source: Space-Track

THOR ABLESTAR DEB, 3164 is space debris in LEO originally from a launch on Thu, 29 Jun 1961 UTC launched from the Air Force Eastern Test Range (AFETR). Debris objects in space refer to the collection of defunct objects orbiting the Earth. Examples of debris include non-operational satellites, rocket bodies, and fragments generated from explosions, collisions, or faulty payload assembly.

Loading next visibility...
Identifier
3164, 1961-015HZ
Orbit
LEO
Country
Flag of USUS
Related business
Manufacturer
Unknown
Mission
Spacecraft
Bus & Motor
Unknown
Mass
Unknown
Launch date (UTC)
1961-06-29 (65 years ago)
Launch vehicle
Unknown
Launch site
Air Force Eastern Test Range (AFETR)
Object type
Payload
Rocket body
Debris
Shape & HBR
Unknown shape, 1.1 m
Radar Cross Section
Medium (>0.1 m² and <1 m²)

Expand to show TLE details & history
Last TLE update: 5 days ago

TLE from 5 days ago
0 THOR ABLESTAR DEB
1 03164U 61015HZ  26154.31445776  .00001132  00000-0  75412-3 0  9991
2 03164  66.7452 124.4671 0041188  51.3377 309.1382 14.04419504 85864
Epoch: 2026-06-03T07:32Z
TLE epoch observation values (Epoch: 2026-06-03T07:32:49.150Z)
Latitude
-0.00003°
Longitude
119.48745°
Altitude
861.823 km
Speed
7.432 km/s
True Right ascension
08h 17m 52s
True Declination
0° 00' 00"
Sunlit
Object was in daylight at epoch
Visualization orbit readout
Latitude
Unknown
Longitude
Unknown
Altitude
Unknown
Speed
Unknown
Apparent Right ascension
Unknown
Apparent Declination
Unknown
Sunlit
N/A
Visualization observer readout
Local Sidereal Time
13:12:51
Azimuth
Unknown
Elevation
Unknown
Doppler factor
Unknown
Orbital elements
Apogee altitude
906.803 km
Perigee altitude
847.038 km
Semi-major axis
7,255.058 km
Eccentricity
0.00412
Inclination
66.7452°
RAAN
124.4671°
Arg. of periapsis
51.3377°
True anomaly
308.77093°
Mean anomaly
309.1382°
Eccentric anomaly
308.95468°
Mean motion
3.51222 °/min
Orbital period
102.5 mins
BSTAR
0.00075412
Loading maneuver chart data...
Computing Atmospheric mass density...

Documentation

Showing up to 5 results
|